Le nostre stazioni meteo in Italia

Pubblicità
Il mio iltempo24.it
Trapani/Birgi, Italia (16429): Temperatura & dewpoint: 10.02.2019 07:00:00 - 16.02.2019 07:00:00 (CET)Trapani/Birgi, Italia (16429): velocità del vento: 10.02.2019 07:00:00 - 16.02.2019 07:00:00 (CET)Trapani/Birgi, Italia (16429): direzione del vento: 10.02.2019 07:00:00 - 16.02.2019 07:00:00 (CET)Trapani/Birgi, Italia (16429): reduced air pressure: 10.02.2019 07:00:00 - 16.02.2019 07:00:00 (CET)Trapani/Birgi, Italia (16429): visibility: 10.02.2019 07:00:00 - 16.02.2019 07:00:00 (CET)Trapani/Birgi, Italia (16429): ore di luce: 10.02.2019 07:00:00 - 16.02.2019 07:00:00 (CET)
Data & Tempo tt [°C] td [°C] ff [km/h] ff [kn] dd ppp [hPa] vv [km] sd [min]
16.02.2019 07:00:00 5,2 3,7 5 3 S 1027,2 10 0
16.02.2019 06:00:00 6,0 4,5 5 3 N 1026,8 20 -
16.02.2019 05:00:00 6,2 4,7 4 2 N 1026,3 20 -
16.02.2019 04:00:00 7,6 5,6 8 4 NE 1026,1 20 -
16.02.2019 03:00:00 8,2 5,8 8 4 NE 1025,9 20 -
16.02.2019 02:00:00 9,8 6,7 8 4 NNE 1025,6 20 -
16.02.2019 01:00:00 10,0 6,4 8 4 NE 1025,2 20 -
16.02.2019 00:00:00 10,2 6,0 16 9 NNE 1025,0 20 -
15.02.2019 23:00:00 10,2 6,9 13 7 NNE 1024,9 20 -
15.02.2019 22:00:00 10,2 7,6 15 8 NE 1024,9 20 -
15.02.2019 21:00:00 10,2 8,3 13 7 NNE 1024,2 20 -
15.02.2019 20:00:00 11,2 9,6 4 2 N 1024,2 20 -
15.02.2019 19:00:00 12,2 10,9 5 3 N 1024,4 12 -
15.02.2019 18:00:00 13,2 11,6 11 6 N 1024,2 20 18
15.02.2019 17:00:00 14,0 11,2 16 9 NNO 1023,8 20 60
15.02.2019 16:00:00 15,0 11,8 18 10 NO 1024,1 20 60
15.02.2019 15:00:00 15,0 11,6 18 10 NNO 1024,8 10 60
15.02.2019 14:00:00 15,0 12,0 15 8 NNO 1025,4 20 60
15.02.2019 13:00:00 14,8 11,4 15 8 NNO 1026,4 20 60
15.02.2019 12:00:00 14,0 10,4 16 9 NNO 1027,3 20 60
15.02.2019 11:00:00 14,0 10,2 18 10 NNO 1027,9 20 60
15.02.2019 10:00:00 13,6 9,8 18 10 NNO 1027,9 20 48
15.02.2019 09:00:00 13,2 10,0 15 8 NNO 1028,3 20 42
15.02.2019 08:00:00 10,0 8,1 8 4 N 1028,2 20 0
15.02.2019 07:00:00 7,0 5,5 8 4 NNE 1028,2 18 0
15.02.2019 06:00:00 6,4 4,9 4 2 N 1028,3 15 -
15.02.2019 05:00:00 7,0 5,5 5 3 N 1029,2 12 -
15.02.2019 04:00:00 5,6 5,0 4 2 ESE 1029,2 15 -
15.02.2019 03:00:00 5,6 5,3 8 4 E 1029,3 15 -
15.02.2019 02:00:00 6,6 6,2 4 2 N 1029,4 15 -
15.02.2019 01:00:00 9,0 8,1 5 3 NNE 1030,2 15 -
15.02.2019 00:00:00 9,0 8,1 9 5 N 1030,6 15 -
14.02.2019 23:00:00 10,2 8,5 9 5 N 1031,1 15 -
14.02.2019 22:00:00 11,0 8,2 16 9 N 1031,2 15 -
14.02.2019 21:00:00 11,0 8,9 15 8 N 1031,2 15 -
14.02.2019 20:00:00 11,0 7,7 16 9 N 1031,2 15 -
14.02.2019 19:00:00 11,2 7,5 16 9 N 1031,2 10 -
14.02.2019 18:00:00 12,2 7,9 15 8 N 1031,2 30 6
14.02.2019 17:00:00 13,2 7,9 24 13 N 1031,2 10 60
14.02.2019 16:00:00 13,6 7,8 29 16 N 1031,2 30 60
14.02.2019 15:00:00 13,6 7,2 24 13 N 1031,2 10 60
14.02.2019 14:00:00 13,6 6,2 24 13 N 1031,4 30 60
14.02.2019 13:00:00 13,2 5,6 22 12 N 1031,9 30 60
14.02.2019 12:00:00 13,0 5,9 21 11 N 1032,1 30 60
14.02.2019 11:00:00 12,4 4,9 26 14 N 1032,2 30 60
14.02.2019 10:00:00 12,0 5,6 9 5 NO 1032,2 30 60
14.02.2019 09:00:00 11,2 5,7 2 1 S 1031,4 30 60
14.02.2019 08:00:00 8,6 3,4 15 8 NNE 1031,1 25 12
14.02.2019 07:00:00 6,0 3,8 13 7 SSE 1030,6 15 0
14.02.2019 06:00:00 7,0 3,1 5 3 N 1030,2 12 -
14.02.2019 05:00:00 8,0 2,9 11 6 N 1029,5 12 -
14.02.2019 04:00:00 10,0 4,8 15 8 NNE 1029,3 12 -
14.02.2019 03:00:00 10,0 4,8 18 10 NNE 1029,3 12 -
14.02.2019 02:00:00 9,0 5,4 11 6 NNE 1029,4 12 -
14.02.2019 01:00:00 9,0 5,4 15 8 NNE 1029,4 12 -
14.02.2019 00:00:00 9,0 4,6 22 12 N 1029,6 12 -
13.02.2019 23:00:00 10,8 6,5 22 12 N 1029,8 12 -
13.02.2019 22:00:00 11,0 6,2 26 14 N 1029,8 12 -
13.02.2019 21:00:00 11,0 5,7 29 16 N 1029,6 12 -
13.02.2019 20:00:00 11,0 5,7 28 15 N 1029,4 12 -
13.02.2019 19:00:00 11,0 5,5 5 3 N 1029,3 15 0
13.02.2019 18:00:00 11,0 5,3 31 17 N 1029,1 20 24
13.02.2019 17:00:00 11,2 5,5 28 15 N 1029,0 20 60
13.02.2019 16:00:00 12,0 2,5 29 16 N 1029,2 20 60
13.02.2019 15:00:00 13,0 4,9 31 17 N 1029,2 20 60
13.02.2019 14:00:00 13,0 4,9 34 18 N 1029,6 20 60
13.02.2019 13:00:00 13,0 3,9 29 16 N 1029,9 25 60
13.02.2019 12:00:00 12,8 4,0 31 17 N 1030,0 25 60
13.02.2019 11:00:00 12,0 3,7 29 16 N 1029,9 25 60
13.02.2019 10:00:00 12,2 4,7 24 13 NNE 1029,3 20 48
13.02.2019 09:00:00 10,0 3,7 16 9 NNE 1029,1 25 30
13.02.2019 08:00:00 8,2 4,0 16 9 NNE 1028,7 25 18
13.02.2019 07:00:00 7,0 5,0 2 1 NNE 1028,1 16 0
13.02.2019 06:00:00 8,8 7,4 9 5 NNE 1027,3 12 -
13.02.2019 05:00:00 10,2 8,5 15 8 N 1026,8 12 -
13.02.2019 04:00:00 9,0 7,4 15 8 N 1026,9 12 -
13.02.2019 03:00:00 8,0 6,1 5 3 NE 1026,7 12 -
13.02.2019 02:00:00 8,4 4,2 8 4 NE 1026,6 12 -
13.02.2019 01:00:00 9,0 4,8 9 5 NNE 1026,6 12 -
13.02.2019 00:00:00 10,2 4,6 11 6 NNO 1026,2 12 -
12.02.2019 23:00:00 11,8 4,1 22 12 N 1025,9 12 -
12.02.2019 22:00:00 11,4 3,4 16 9 N 1025,4 12 -
12.02.2019 21:00:00 12,2 3,4 26 14 N 1025,2 12 -
12.02.2019 20:00:00 12,2 3,9 28 15 N 1025,3 12 -
12.02.2019 19:00:00 11,8 5,4 22 12 N 1024,7 10 -
12.02.2019 18:00:00 11,8 5,4 18 10 NNO 1024,0 12 -
12.02.2019 17:00:00 13,4 4,6 21 11 N 1023,6 20 60
12.02.2019 16:00:00 13,2 3,8 26 14 N 1023,0 20 60
12.02.2019 15:00:00 13,0 2,8 34 18 N 1022,3 10 60
12.02.2019 14:00:00 13,0 4,7 28 15 N 1022,2 20 60
12.02.2019 13:00:00 13,2 5,4 31 17 N 1022,2 20 60
12.02.2019 12:00:00 13,0 5,4 34 18 N 1022,4 18 60
12.02.2019 11:00:00 13,0 5,9 29 16 N 1021,8 20 60
12.02.2019 10:00:00 12,0 5,6 29 16 N 1021,3 20 36
12.02.2019 09:00:00 11,0 8,2 18 10 NNE 1020,4 18 0
12.02.2019 08:00:00 12,0 4,5 28 15 N 1019,4 20 0
12.02.2019 07:00:00 10,6 6,2 34 18 NO 1018,3 14 0
12.02.2019 06:00:00 11,0 6,7 24 13 ONO 1018,3 12 -
12.02.2019 05:00:00 10,2 5,6 15 8 ONO 1018,1 12 -
12.02.2019 04:00:00 10,4 7,1 22 12 ONO 1018,2 12 -
12.02.2019 03:00:00 11,4 8,6 24 13 ONO 1018,3 12 -
12.02.2019 02:00:00 11,0 5,8 34 18 NO 1018,6 12 -
12.02.2019 01:00:00 11,8 6,1 34 18 NO 1018,3 12 -
12.02.2019 00:00:00 12,4 5,8 26 14 NO 1018,3 12 -
11.02.2019 23:00:00 12,6 6,2 24 13 NO 1018,2 12 -
11.02.2019 22:00:00 13,0 7,5 22 12 NO 1018,3 12 -
11.02.2019 21:00:00 13,0 7,2 26 14 NNO 1018,2 12 -
11.02.2019 20:00:00 12,8 8,3 34 18 ONO 1018,1 12 -
11.02.2019 19:00:00 13,0 9,4 35 19 ONO 1018,1 18 -
11.02.2019 18:00:00 13,2 10,2 37 20 ONO 1017,6 20 0
11.02.2019 17:00:00 14,0 9,7 42 23 ONO 1017,4 22 30
11.02.2019 16:00:00 14,0 8,2 41 22 O 1017,3 22 0
11.02.2019 15:00:00 14,0 8,6 41 22 ONO 1017,2 22 30
11.02.2019 14:00:00 15,2 9,4 46 25 ONO 1017,3 22 48
11.02.2019 13:00:00 15,4 11,8 31 17 OSO 1017,9 22 60
11.02.2019 12:00:00 15,2 12,2 34 18 ONO 1019,1 22 60
11.02.2019 11:00:00 15,8 11,6 35 19 O 1018,5 20 54
11.02.2019 10:00:00 15,0 11,6 26 14 O 1018,3 18 42
11.02.2019 09:00:00 14,0 11,2 24 13 O 1018,1 16 6
11.02.2019 08:00:00 13,2 11,1 18 10 O 1017,9 16 0
11.02.2019 07:00:00 13,0 10,5 18 10 O 1018,1 15 0
11.02.2019 06:00:00 12,8 10,2 24 13 O 1018,1 12 -
11.02.2019 05:00:00 12,0 9,7 16 9 S 1017,9 12 -
11.02.2019 04:00:00 11,8 9,4 16 9 S 1018,3 10 -
11.02.2019 03:00:00 11,0 8,9 16 9 SSE 1018,4 12 -
11.02.2019 02:00:00 11,0 8,9 24 13 SSE 1019,3 12 -
11.02.2019 01:00:00 11,0 8,9 22 12 SSE 1020,2 12 -
11.02.2019 00:00:00 11,0 9,2 24 13 SSE 1020,4 12 -
10.02.2019 23:00:00 11,2 9,5 18 10 SE 1020,6 12 -
10.02.2019 22:00:00 11,8 10,0 24 13 SSE 1021,2 12 -
10.02.2019 21:00:00 11,8 10,2 24 13 SSE 1021,4 12 -
10.02.2019 20:00:00 11,8 10,2 24 13 SSE 1021,4 12 -
10.02.2019 19:00:00 12,0 10,9 22 12 SSE 1021,8 16 -
10.02.2019 18:00:00 12,8 11,7 22 12 SSE 1022,1 20 30
10.02.2019 17:00:00 14,4 12,6 26 14 SSE 1022,2 20 60
10.02.2019 16:00:00 15,8 12,5 28 15 SSE 1022,9 10 60
10.02.2019 15:00:00 16,0 12,0 24 13 SSE 1023,2 20 60
10.02.2019 14:00:00 16,0 11,6 26 14 SSE 1023,5 20 60
10.02.2019 13:00:00 16,0 12,4 24 13 S 1024,3 20 60
10.02.2019 12:00:00 15,0 12,0 22 12 SSO 1025,2 20 60
10.02.2019 11:00:00 14,0 11,2 16 9 S 1025,5 20 60
10.02.2019 10:00:00 13,6 11,1 13 7 SSE 1025,5 20 48
10.02.2019 09:00:00 10,2 7,6 11 6 ESE 1025,5 20 18
10.02.2019 08:00:00 7,6 5,2 9 5 ESE 1025,5 20 0
10.02.2019 07:00:00 7,2 4,9 9 5 ESE 1025,3 18 0

tt = Temperatura
td = dewpoint
ff = velocità del vento
dd = direzione del vento
ppp = reduced air pressure
vv = visibility
sd = ore di luce

Stazioni seguenti

WeatherPro
AMSI
MeteoEarth